Date,TemperatureHighF,TemperatureAvgF,TemperatureLowF,DewpointHighF,DewpointAvgF,DewpointLowF,HumidityHigh,HumidityAvg,HumidityLow,PressureMaxIn,PressureMinIn,WindSpeedMaxMPH,WindSpeedAvgMPH,GustSpeedMaxMPH,PrecipitationSumIn
2013-3-1,40,22,26,-100,-100,-100,0,0,100,29.92,29.47,16,4,19,0.00
2013-3-2,37,25,26,-100,-100,-100,0,0,100,29.93,29.82,18,-3,28,0.00
2013-3-3,40,37,35,-100,-100,-100,0,0,100,30.18,29.81,24,14,39,0.00
2013-3-4,40,39,37,-100,-100,-100,0,0,100,30.34,30.17,7,-18,13,0.00
2013-3-5,40,37,36,-100,-100,-100,0,0,100,30.25,29.89,10,-45,15,0.00
2013-3-6,42,38,34,-100,-100,-100,0,0,100,29.90,29.63,13,-124,20,0.00
2013-3-7,42,38,32,-100,-100,-100,0,0,100,29.62,29.13,22,-28,31,0.00
2013-3-8,40,38,34,-100,-100,-100,0,0,100,29.67,29.35,17,8,28,0.00
2013-3-9,37,35,32,-100,-100,-100,0,0,100,30.20,29.67,19,-42,26,0.00
2013-3-10,40,30,30,-100,-100,-100,0,0,100,30.24,30.08,25,-12,44,0.00
2013-3-11,38,29,31,-100,-100,-100,0,0,100,30.28,30.19,23,11,34,0.00
2013-3-12,37,30,31,-100,-100,-100,0,0,100,30.20,29.95,26,12,37,0.00
2013-3-13,38,16,28,-100,-100,-100,0,0,100,29.95,29.70,15,0,21,0.00
2013-3-14,35,20,24,-100,-100,-100,0,0,100,29.70,29.61,15,-9,24,0.00
2013-3-15,38,20,27,-100,-100,-100,0,0,100,29.80,29.62,19,-81,25,0.00
2013-3-16,39,22,25,-100,-100,-100,0,0,100,30.14,29.80,12,-34,20,0.00
2013-3-17,37,27,30,-100,-100,-100,0,0,100,30.22,30.09,16,7,25,0.00
2013-3-18,35,22,29,-100,-100,-100,0,0,100,30.09,29.91,20,9,35,0.00
2013-3-19,31,8,26,-100,-100,-100,0,0,100,29.92,29.87,20,10,37,0.00
2013-3-20,35,16,25,-100,-100,-100,0,0,100,30.06,29.91,24,12,51,0.00
2013-3-21,37,20,26,-100,-100,-100,0,0,100,30.21,30.05,15,6,25,0.00
2013-3-22,40,37,35,-100,-100,-100,0,0,100,30.11,29.86,17,9,21,0.00
2013-3-23,41,33,31,-100,-100,-100,0,0,100,29.87,29.71,8,-126,11,0.00
2013-3-24,35,23,31,-100,-100,-100,0,0,100,29.71,29.58,32,14,46,0.00
2013-3-25,30,7,15,-100,-100,-100,0,0,100,29.90,29.58,32,13,44,0.00
2013-3-26,31,6,15,-100,-100,-100,0,0,100,30.14,29.89,15,-10,20,0.00
2013-3-27,38,18,24,-100,-100,-100,0,0,100,30.15,30.00,9,-44,10,0.00
2013-3-28,39,37,35,-100,-100,-100,0,0,100,30.00,29.61,6,-18,14,0.00
2013-3-29,48,39,35,-100,-100,-100,0,0,100,29.94,29.64,10,-206,12,0.00
2013-3-30,42,38,35,-100,-100,-100,0,0,100,30.18,29.94,12,-100,16,0.00
2013-3-31,41,33,30,-100,-100,-100,0,0,100,30.19,30.14,10,-86,13,0.00